Location: Ceske Budejovice
(48.9830°N, 14.4670°E)
Time: 12:07:50
(UTC+02:00)

CUTE-I - Visible Passes

Search period start: 17 October 2019 00:00
Search period end: 27 October 2019 00:00
Orbit: 810 x 825 km, 98.7° (Epoch: 16 October)

Date Brightness Start Highest point End Pass type
(mag) Time Alt. Az. Time Alt. Az. Time Alt. Az.
17 Oct ? 06:36:07 10° NE 06:40:38 27° E 06:45:08 10° SSE visible
17 Oct ? 19:43:25 10° SW 19:47:23 21° W 19:51:21 10° NW visible
18 Oct ? 06:15:19 10° NE 06:18:58 18° E 06:22:38 10° SE visible
18 Oct ? 19:21:05 10° SSW 19:25:44 31° W 19:30:26 10° NNW visible
19 Oct ? 05:55:13 10° ENE 05:57:15 12° E 05:59:18 10° ESE visible
19 Oct ? 18:59:07 10° S 19:04:11 46° W 19:09:18 10° NNW visible
20 Oct ? 18:37:25 10° S 18:42:41 68° WSW 18:48:00 10° NNW visible
20 Oct ? 20:23:13 10° W 20:23:44 10° W 20:24:16 10° WNW visible
21 Oct ? 06:50:17 10° NNE 06:55:10 35° E 07:00:03 10° SSE visible
21 Oct ? 19:58:46 10° SW 20:01:59 16° W 20:05:12 10° NW visible
22 Oct ? 06:29:16 10° NE 06:33:34 24° E 06:37:51 10° SE visible
22 Oct ? 19:36:05 10° SW 19:40:18 24° W 19:44:33 10° NW visible
23 Oct ? 06:08:37 10° NE 06:11:54 16° E 06:15:10 10° SE visible
23 Oct ? 19:13:52 10° SSW 19:18:41 35° W 19:23:33 10° NNW visible
24 Oct ? 05:49:18 10° ENE 05:50:08 10° E 05:50:59 10° E visible
24 Oct ? 18:51:59 10° S 18:57:09 52° W 19:02:22 10° NNW visible
25 Oct ? 18:30:23 10° S 18:35:41 77° WSW 18:41:02 10° NNW visible
25 Oct ? 20:14:39 10° WSW 20:16:37 12° W 20:18:34 10° WNW visible
26 Oct ? 06:43:23 10° NNE 06:48:08 31° E 06:52:52 10° SSE visible
26 Oct ? 19:51:17 10° SW 19:54:53 18° W 19:58:31 10° NW visible
